{"data":{"norad_id":65809,"intl_designator":"2025-218U","name":"STARLINK-35289","alt_names":[],"object_type":"PAYLOAD","status":"ACTIVE","operator":null,"country":"US","launch_date":"2025-09-26","launch_site_code":"AFWTR","launch_vehicle":null,"mission":null,"orbit_class":"UNKNOWN","rcs_meters":null,"size_class":null,"mass_kg":null,"dimensions":null,"purposes":["comms"],"wikipedia_slug":null,"has_3d_model":false,"image_url":null,"decayed_at":null,"tle_current":{"epoch":"2026-05-25T03:11:13.034400Z","epoch_age_seconds":59485,"freshness":"FRESH","line1":"1 65809U 25218U   26145.13278975  .00001964  00000+0  14013-3 0  9997","line2":"2 65809  97.4492   7.9461 0002903  85.9725 274.1834 15.05655074 36479","mean_motion":15.05655074,"eccentricity":0.0002903,"inclination_deg":97.4492,"raan_deg":7.9461,"arg_perigee_deg":85.9725,"mean_anomaly_deg":274.1834,"bstar":0.00014013,"rev_number":3647,"period_min":95.639434613296,"perigee_km":547.48449834996,"apogee_km":551.50668183177,"semimajor_km":6927.6325900909,"source":"CELESTRAK","updated_at":"2026-05-25T13:38:20.939835Z"}}}